| time (UTC) | temp F | wind direction | speed MPH | gust MPH | rain 1hr in | rain 24hr in | rain mn in | humidity % | barometer mb |
| 20260510091745 | 55 | 160 | 9.0 | 0.0 | 0.00 | 0.00 | 0.00 | 76 | |
| 20260510081745 | 52 | 160 | 9.0 | 0.0 | 0.00 | 0.00 | 0.00 | 81 | |
| 20260510071845 | 48 | 170 | 12.0 | 0.0 | 0.00 | 0.00 | 0.00 | 81 | |
| 20260510061746 | 45 | 180 | 12.0 | 0.0 | 0.00 | 0.00 | 0.00 | 93 | |
| 20260510051746 | 43 | 170 | 14.0 | 0.0 | 0.00 | 0.00 | 0.00 | 93 | |
| 20260510042045 | 41 | 150 | 14.0 | 0.0 | 0.00 | 0.00 | 0.00 | 99 | |
| 20260510031744 | 41 | 150 | 16.0 | 0.0 | 0.00 | 0.00 | 0.00 | 99 | |
| 20260510021746 | 43 | 140 | 16.0 | 0.0 | 0.00 | 0.00 | 0.00 | 93 | |
| 20260510011946 | 43 | 150 | 20.0 | 0.0 | 0.00 | 0.00 | 0.00 | 93 | |
| 20260510001746 | 41 | 140 | 20.0 | 0.0 | 0.00 | 0.00 | 0.00 | 99 | |
| 20260509231745 | 41 | 130 | 24.0 | 0.0 | 0.00 | 0.00 | 0.00 | 99 | |
| 20260509222046 | 43 | 130 | 22.0 | 0.0 | 0.00 | 0.00 | 0.00 | 99 | |
| 20260509211745 | 43 | 130 | 22.0 | 0.0 | 0.00 | 0.00 | 0.00 | 99 | |
| 20260509201745 | 43 | 120 | 20.0 | 0.0 | 0.00 | 0.00 | 0.00 | 93 | |
| 20260509191845 | 45 | 110 | 18.0 | 0.0 | 0.00 | 0.00 | 0.00 | 87 | |
| 20260509181745 | 50 | 110 | 9.0 | 0.0 | 0.00 | 0.00 | 0.00 | 81 | |
| 20260509171745 | 52 | 90 | 7.0 | 0.0 | 0.00 | 0.00 | 0.00 | 76 | |
| 20260509162046 | 54 | 90 | 7.0 | 0.0 | 0.00 | 0.00 | 0.00 | 76 | |
| 20260509151745 | 55 | 90 | 5.0 | 0.0 | 0.00 | 0.00 | 0.00 | 71 | |
| 20260509141745 | 54 | 60 | 7.0 | 0.0 | 0.00 | 0.00 | 0.00 | 71 | |
| 20260509131844 | 54 | 60 | 2.0 | 0.0 | 0.00 | 0.00 | 0.00 | 76 | |
| 20260509121745 | 50 | 80 | 2.0 | 0.0 | 0.00 | 0.00 | 0.00 | 81 | |
| 20260509111745 | 50 | 0 | 0.0 | 0.0 | 0.00 | 0.00 | 0.00 | 81 | |
| 20260509101945 | 48 | 80 | 2.0 | 0.0 | 0.00 | 0.00 | 0.00 | 87 |